Campo, CA

1:48 AM PDT on March 24, 2017 (GMT -0700)
Campo

Weather History for KCZZ - December, 2014

Change the Weather History Date:

Wednesday, December 31, 2014

  Actual Average Record
Temperature  
Mean Temperature 33 °F 48 °F  
Max Temperature 35 °F 62 °F 78 °F (2000)
Min Temperature 30 °F 33 °F 17 °F (1972)
Degree Days  
Heating Degree Days 32 17  
Month to date heating degree days 505 539  
Since 1 July heating degree days 886 1106  
Cooling Degree Days 0 0  
Month to date cooling degree days 0 0  
Year to date cooling degree days 900 841  
Moisture  
Dew Point 25 °F    
Average Humidity 85    
Maximum Humidity 100    
Minimum Humidity 69    
Precipitation  
Precipitation 0.30 in 0.09 in 2.37 in (1951)
Month to date precipitation 3.61 2.27  
Year to date precipitation 8.66 15.73  
Since 1 July precipitation 5.90  
Snow  
Snow 0.00 in - - ()
Month to date snowfall 0.0  
Year to date snowfall 0.0  
Snow Depth 0.00 in    
Sea Level Pressure  
Sea Level Pressure 29.91 in    
Wind  
Wind Speed 11 mph (ENE)    
Max Wind Speed 22 mph    
Max Gust Speed 25 mph    
T = Trace of Precipitation, MM = Missing Value Source: NWS Daily Summary

Daily Weather History Graph

Daily Weather History Graph

Search for Another Location

Airport or City:

Trip Planner

Search our weather history database for the weather conditions in past years. The results will help you decide how hot, cold, wet, or windy it might be!

Date:

Astronomy

Dec. 31, 2014 Rise Set
Actual Time 6:47 AM PST 4:50 PM PST
Civil Twilight 6:20 AM PST 5:17 PM PST
Nautical Twilight 5:49 AM PST 5:48 PM PST
Astronomical Twilight 5:19 AM PST 6:18 PM PST
Moon 1:37 PM PST (12/31) 2:27 AM PST (12/31)
Length of Visible Light 10h 56m
Length of Day
10h 02m
Waxing Gibbous, 81% of the Moon is Illuminated
Dec 31
Waxing Gibbous
Jan 4
Full
Jan 13
Last Quarter
Jan 20
New
Jan 26
First Quarter

Hourly Weather History & Observations

Time (PST) Temp. Windchill Dew Point Humidity Pressure Visibility Wind Dir Wind Speed Gust Speed Precip Events Conditions
12:52 AM 33.1 °F 23.9 °F 30.9 °F 92% 29.83 in - East 12.7 mph - 0.08 in   Unknown
1:52 AM 33.1 °F - 32.0 °F 96% 29.84 in - Calm Calm - 0.07 in   Unknown
2:52 AM 32.0 °F 24.8 °F 30.9 °F 96% 29.84 in - ENE 8.1 mph - 0.09 in   Unknown
3:52 AM 30.9 °F 26.2 °F 30.0 °F 96% 29.84 in - Variable 4.6 mph - 0.05 in   Unknown
4:52 AM 30.9 °F 22.2 °F 28.0 °F 89% 29.83 in - ENE 10.4 mph - 0.02 in   Unknown
5:52 AM 30.9 °F 21.7 °F 26.1 °F 82% 29.83 in - ENE 11.5 mph - N/A   Unknown
6:52 AM 30.9 °F 21.2 °F 26.1 °F 82% 29.85 in - ENE 12.7 mph - N/A   Unknown
7:52 AM 30.9 °F 19.8 °F 25.0 °F 79% 29.86 in - ENE 16.1 mph - N/A   Unknown
8:52 AM 30.9 °F 21.2 °F 24.1 °F 76% 29.89 in - ENE 12.7 mph - N/A   Unknown
9:52 AM 32.0 °F 22.1 °F 24.1 °F 73% 29.91 in - ENE 13.8 mph - N/A   Unknown
10:52 AM 32.0 °F 20.8 °F 24.1 °F 73% 29.90 in - ENE 17.3 mph - N/A   Unknown
11:52 AM 33.1 °F 23.9 °F 24.1 °F 70% 29.90 in - ENE 12.7 mph - N/A   Unknown
12:52 PM 33.1 °F 23.4 °F 24.1 °F 70% 29.90 in - ENE 13.8 mph 23.0 mph N/A   Unknown
1:52 PM 34.0 °F 25.5 °F 26.1 °F 73% 29.89 in - NE 11.5 mph - N/A   Unknown
2:52 PM 34.0 °F 27.2 °F 25.0 °F 70% 29.91 in - East 8.1 mph - N/A   Unknown
3:52 PM 35.1 °F 26.9 °F 24.1 °F 64% 29.93 in - ENE 11.5 mph - N/A   Unknown
4:52 PM 33.1 °F 26.9 °F 26.1 °F 75% 29.96 in - North 6.9 mph - N/A   Unknown
5:52 PM 32.0 °F 28.7 °F 28.0 °F 85% 29.97 in - North 3.5 mph - N/A   Unknown
6:52 PM 30.0 °F - 27.0 °F 88% 29.99 in - Calm Calm - N/A   Unknown
7:52 PM 28.0 °F 20.8 °F 25.0 °F 88% 29.99 in - ENE 6.9 mph - N/A   Unknown
8:52 PM 25.0 °F - 21.0 °F 85% 30.01 in - Calm Calm - N/A   Unknown
9:52 PM 24.1 °F 19.7 °F 19.9 °F 84% 30.00 in - NE 3.5 mph - N/A   Unknown
10:52 PM 23.0 °F 15.8 °F 19.0 °F 85% 30.00 in - ENE 5.8 mph - N/A   Unknown
11:52 PM 21.9 °F 13.4 °F 19.0 °F 89% 30.01 in - ENE 6.9 mph - N/A   Unknown